Fort Collins, CO

3:55 AM MST on December 10, 2019 (GMT -0700)
Fort Collins-Loveland Municipal

Weather History for KFNL - October, 2019

Change the Weather History Date:

Sunday, October 20, 2019

  Actual Average Record
Temperature  
Mean Temperature 44 °F -  
Max Temperature 51 °F - 78 °F (2003)
Min Temperature 36 °F - 30 °F (1999)
Degree Days  
Heating Degree Days 21    
Month to date heating degree days 314  
Cooling Degree Days 0    
Month to date cooling degree days 0  
Moisture  
Dew Point 17 °F    
Average Humidity 39    
Maximum Humidity 57    
Minimum Humidity 20    
Precipitation  
Precipitation 0.00 in - 0.11 in (1996)
Snow  
Snow 0.00 in - - ()
Snow Depth 0.00 in    
Sea Level Pressure  
Sea Level Pressure 29.66 in    
Wind  
Wind Speed 17 mph (NW)    
Max Wind Speed 41 mph    
Max Gust Speed 54 mph    
Visibility 10 miles    
Events      
T = Trace of Precipitation, MM = Missing Value Source: NWS Daily Summary

Daily Weather History Graph

Daily Weather History Graph

Search for Another Location

Airport or City:

Astronomy

Oct. 20, 2019 Rise Set
Actual Time 7:16 AM MDT 6:12 PM MDT
Civil Twilight 6:48 AM MDT 6:40 PM MDT
Nautical Twilight 6:16 AM MDT 7:12 PM MDT
Astronomical Twilight 5:45 AM MDT 7:43 PM MDT
Moon 11:23 PM MDT (10/20) 1:47 PM MDT (10/20)
Length of Visible Light 11h 51m
Length of Day
10h 56m
Waning Gibbous, 58% of the Moon is Illuminated
Oct 20
Waning Gibbous
Oct 21
Last Quarter
Oct 27
New
Nov 4
First Quarter
Nov 12
Full

Hourly Weather History & Observations

Time (MDT) Temp. Windchill Dew Point Humidity Pressure Visibility Wind Dir Wind Speed Gust Speed Precip Events Conditions
12:56 AM 46.9 °F - 19.0 °F 33% 29.44 in 10.0 mi Calm Calm - N/A   Clear
1:56 AM 43.0 °F 38.8 °F 21.9 °F 43% 29.47 in 10.0 mi North 6.9 mph - N/A   Clear
2:56 AM 43.0 °F 33.5 °F 28.0 °F 56% 29.52 in 10.0 mi NW 24.2 mph 29.9 mph N/A   Mostly Cloudy
3:56 AM 43.0 °F 36.0 °F 21.0 °F 42% 29.53 in 10.0 mi North 13.8 mph 24.2 mph N/A   Clear
4:23 AM 46.4 °F 38.3 °F 14.0 °F 27% 29.62 in 6.0 mi WNW 23.0 mph 46.0 mph N/A   Haze
4:35 AM 44.6 °F 35.1 °F 10.4 °F 25% 29.64 in 10.0 mi NNW 27.6 mph 39.1 mph N/A   Clear
4:56 AM 43.0 °F 36.8 °F 12.9 °F 30% 29.56 in 10.0 mi NW 11.5 mph - N/A   Clear
5:56 AM 43.0 °F 33.5 °F 16.0 °F 34% 29.56 in 10.0 mi WNW 24.2 mph 34.5 mph N/A   Clear
6:56 AM 41.0 °F 30.5 °F 17.1 °F 38% 29.61 in 10.0 mi WNW 26.5 mph 35.7 mph N/A   Clear
7:56 AM 41.0 °F 33.1 °F 19.0 °F 41% 29.61 in 10.0 mi West 15.0 mph 24.2 mph N/A   Clear
8:56 AM 45.0 °F 41.2 °F 14.0 °F 29% 29.60 in 10.0 mi West 6.9 mph - N/A   Clear
9:56 AM 46.0 °F 43.9 °F 14.0 °F 28% 29.59 in 10.0 mi Variable 4.6 mph - N/A   Clear
10:56 AM 51.1 °F - 12.0 °F 21% 29.56 in 10.0 mi WNW 15.0 mph 28.8 mph N/A   Clear
11:56 AM 48.0 °F - 12.9 °F 24% 29.58 in 10.0 mi West 24.2 mph 29.9 mph N/A   Clear
12:56 PM 48.0 °F - 14.0 °F 26% 29.60 in 10.0 mi West 17.3 mph 26.5 mph N/A   Overcast
1:56 PM 50.0 °F - 10.9 °F 21% 29.61 in 10.0 mi WNW 31.1 mph 35.7 mph N/A   Scattered Clouds
2:56 PM 48.9 °F - 15.1 °F 26% 29.67 in 6.0 mi WNW 39.1 mph 52.9 mph N/A   Haze
3:56 PM 50.0 °F - 16.0 °F 26% 29.69 in 9.0 mi WNW 41.4 mph 50.6 mph N/A   Clear
4:05 PM 50.0 °F - 15.8 °F 26% 29.75 in 5.0 mi WNW 36.8 mph 54.1 mph N/A   Haze
4:56 PM 48.9 °F - 17.1 °F 28% 29.75 in 10.0 mi WNW 36.8 mph 44.9 mph N/A   Clear
5:56 PM 46.0 °F 37.6 °F 16.0 °F 30% 29.78 in 10.0 mi NW 24.2 mph 38.0 mph N/A   Clear
6:56 PM 44.1 °F 35.4 °F 19.9 °F 38% 29.81 in 10.0 mi NNW 21.9 mph 34.5 mph N/A   Clear
7:56 PM 43.0 °F 33.8 °F 21.0 °F 42% 29.85 in 10.0 mi NNW 23.0 mph 34.5 mph N/A   Partly Cloudy
8:56 PM 41.0 °F 31.4 °F 24.1 °F 51% 29.86 in 10.0 mi North 21.9 mph 29.9 mph N/A   Clear
9:56 PM 42.1 °F 32.6 °F 21.9 °F 45% 29.87 in 10.0 mi NW 23.0 mph 29.9 mph N/A   Clear
10:56 PM 39.0 °F 31.4 °F 23.0 °F 53% 29.87 in 10.0 mi NNW 12.7 mph - N/A   Clear
11:56 PM 37.9 °F 29.2 °F 19.9 °F 48% 29.88 in 10.0 mi NNW 15.0 mph 19.6 mph N/A   Clear